(53871) = 1985 XK1 = 1997 GQ38 = 2000 FN31

Discovered at Socorro on 2000-03-28 by LINEAR.

Orbit

Orbit type: Main Belt

Note: WebGL enabled browser required.

epoch2024-03-31.0
epoch JD2460400.5
perihelion date2022-06-25.95286
perihelion JD2459756.45286
argument of perihelion (°)333.36694
ascending node (°)59.71299
inclination (°)9.45982
eccentricity0.1656747
perihelion distance (AU)1.8695649
Tisserand w.r.t. Jupiter3.6
ΔV w.r.t. Earth (km/sec)8.9
semimajor axis (AU)2.2408105
mean anomaly (°)189.24037
mean daily motion (°/day)0.29383000
aphelion distance (AU)2.612
period (years)3.35
P-vector [x]0.83264599
P-vector [y]0.53289707
P-vector [z]0.15073607
Q-vector [x]-0.53531161
Q-vector [y]0.70470237
Q-vector [z]0.46565658
absolute magnitude14.63
phase slope0.15
uncertainty0
referenceMPEC 2024-E179
observations used3806
oppositions19
arc length (days)9837
first opposition used1997
last opposition used2024
residual rms (arc-secs)0.51
perturbers coarse indicatorM-v
perturbers precise indicator003Ek
first observation date used1997-04-07.0
last observation date used2024-03-13.0
computer nameMPCLINUX
JD of orbit computation2456966.737741
perihelion JD uncertainty (days)4.6717E-05
argument of perihelion uncertainty (°)2.0399E-05
ascending node uncertainty (°)1.7521E-05
inclination uncertainty (°)4.0736E-06
eccentricity uncertainty 3.9137E-08
perihelion distance uncertainty (AU)8.8642E-08
Minimum Orbit Intersection Distances (in AU)
for orbit epoch: 2460400.5, reference: E2024-G51
Mercury1.53931
Venus1.14618
Earth0.88198
Mars0.40176
Jupiter2.80761
Saturn6.93555
Uranus15.9481
Neptune27.9545

Observations

3908 total observations over interval: 1985 12 14.91320 – 2024 03 13.318262
These data are available for download (format description).

Date (UT) J2000 RA J2000 Dec Magn Location Ref
1985 12 14.91320 05 54 08.18 +31 38 57.4   010 – Caussols MPC 11003
1985 12 14.99960 05 54 02.24 +31 39 35.0   010 – Caussols MPC 11003
1997 04 07.23958 14 21 44.95 -05 43 34.2 18.4   809 – European Southern Observatory, La Silla MPC 30037
1997 04 07.25278 14 21 44.27 -05 43 31.8   809 – European Southern Observatory, La Silla MPC 30037
1997 04 07.26597 14 21 43.46 -05 43 29.0   809 – European Southern Observatory, La Silla MPC 30037
1997 04 08.22639 14 20 49.46 -05 40 27.3   809 – European Southern Observatory, La Silla MPC 30037
1997 04 08.23958 14 20 48.61 -05 40 25.8   809 – European Southern Observatory, La Silla MPC 30037
1997 04 08.25278 14 20 47.86 -05 40 22.1   809 – European Southern Observatory, La Silla MPC 30037
1998 06 23.33837 23 31 11.552 -16 27 31.34 16.58 J I02 – Cerro Tololo Observatory, La Serena--2MASS MPS 81264
1998 08 14.21923 23 59 27.127 -19 16 56.92 15.39 J I02 – Cerro Tololo Observatory, La Serena--2MASS MPS 81264
1998 11 11.15422 23 13 36.41 -16 36 09.7 17.0 R 699 – Lowell Observatory-LONEOS MPS 12613
1998 11 11.17410 23 13 37.07 -16 35 55.1   699 – Lowell Observatory-LONEOS MPS 12613
1998 11 11.19399 23 13 37.65 -16 35 39.3   699 – Lowell Observatory-LONEOS MPS 12613
1998 11 23.12659 23 22 17.85 -13 52 31.2 18.0 R 699 – Lowell Observatory-LONEOS MPS 12613
1998 11 23.14692 23 22 18.83 -13 52 12.7   699 – Lowell Observatory-LONEOS MPS 12613
1998 11 23.16725 23 22 19.92 -13 51 55.2   699 – Lowell Observatory-LONEOS MPS 12613
1998 12 08.12451 23 38 11.40 -10 09 07.1 19.1   704 – Lincoln Laboratory ETS, New Mexico MPS 12613
1998 12 08.13514 23 38 12.28 -10 08 57.7 19.1   704 – Lincoln Laboratory ETS, New Mexico MPS 12613
1998 12 08.15622 23 38 13.66 -10 08 38.3 20.1   704 – Lincoln Laboratory ETS, New Mexico MPS 12613
1998 12 08.16686 23 38 14.24 -10 08 27.1 19.5   704 – Lincoln Laboratory ETS, New Mexico MPS 12613
1998 12 21.76384 23 56 20.37 -06 34 32.9 19.0 V 910 – Caussols-ODAS MPS 12613
1998 12 21.78684 23 56 22.28 -06 34 11.0 19.5 V 910 – Caussols-ODAS MPS 12613
1998 12 21.81082 23 56 24.35 -06 33 47.6 19.1 V 910 – Caussols-ODAS MPS 12613
1999 01 13.07829 00 31 35.19 -00 31 42.2 18.7 R 699 – Lowell Observatory-LONEOS MPS 12613
1999 01 13.09355 00 31 36.74 -00 31 26.8   699 – Lowell Observatory-LONEOS MPS 12613
1999 01 13.11042 00 31 38.54 -00 31 08.5   699 – Lowell Observatory-LONEOS MPS 12613
1999 02 04.09473 01 11 18.97 +05 26 12.3 18.9 R 699 – Lowell Observatory-LONEOS MPS 12613
1999 02 04.10745 01 11 20.50 +05 26 24.4   699 – Lowell Observatory-LONEOS MPS 12613
1999 02 04.12016 01 11 21.84 +05 26 36.3   699 – Lowell Observatory-LONEOS MPS 12613
2000 01 07.45508 12 25 40.45 +09 43 01.6 17.5   704 – Lincoln Laboratory ETS, New Mexico MPS 12613
2000 01 07.47227 12 25 40.99 +09 43 02.9 18.5   704 – Lincoln Laboratory ETS, New Mexico MPS 12613
2000 01 07.48702 12 25 41.54 +09 43 02.4 18.0   704 – Lincoln Laboratory ETS, New Mexico MPS 12613
2000 01 07.50356 12 25 42.14 +09 43 02.6 18.7   704 – Lincoln Laboratory ETS, New Mexico MPS 12613
2000 01 07.51998 12 25 42.68 +09 43 03.5 18.1   704 – Lincoln Laboratory ETS, New Mexico MPS 12613
2000 02 04.37513 12 32 17.75 +10 58 31.6 18.4   704 – Lincoln Laboratory ETS, New Mexico MPS 12613
2000 02 04.38940 12 32 17.56 +10 58 35.3 18.6   704 – Lincoln Laboratory ETS, New Mexico MPS 12613
2000 02 04.40361 12 32 17.39 +10 58 40.0 18.6   704 – Lincoln Laboratory ETS, New Mexico MPS 12613
2000 02 04.41788 12 32 17.27 +10 58 44.9 18.6   704 – Lincoln Laboratory ETS, New Mexico MPS 12613
2000 02 04.43225 12 32 17.05 +10 58 48.4 18.4   704 – Lincoln Laboratory ETS, New Mexico MPS 12613
2000 03 05.30984 12 14 13.22 +14 04 53.8 17.4   704 – Lincoln Laboratory ETS, New Mexico MPS 12613
2000 03 05.32306 12 14 12.44 +14 04 58.4 18.1   704 – Lincoln Laboratory ETS, New Mexico MPS 12613
2000 03 05.33629 12 14 11.63 +14 05 03.8 17.8   704 – Lincoln Laboratory ETS, New Mexico MPS 12613
2000 03 05.34951 12 14 10.84 +14 05 08.6 17.7   704 – Lincoln Laboratory ETS, New Mexico MPS 12613
2000 03 05.36276 12 14 10.07 +14 05 13.8 18.2   704 – Lincoln Laboratory ETS, New Mexico MPS 12613
2000 03 12.40610 12 07 02.05 +14 47 09.0 18.0   704 – Lincoln Laboratory ETS, New Mexico MPS 12613
2000 03 12.41881 12 07 01.25 +14 47 13.0 18.5   704 – Lincoln Laboratory ETS, New Mexico MPS 12613
2000 03 12.43152 12 07 00.39 +14 47 17.7 18.3   704 – Lincoln Laboratory ETS, New Mexico MPS 12613
2000 03 12.44459 12 06 59.56 +14 47 22.4 18.8   704 – Lincoln Laboratory ETS, New Mexico MPS 12613
2000 03 12.45727 12 06 58.75 +14 47 26.5 18.4   704 – Lincoln Laboratory ETS, New Mexico MPS 12613
2000 03 26.25617 11 52 22.50 +15 46 31.8 17.9 R 699 – Lowell Observatory-LONEOS MPS 12613
2000 03 26.27756 11 52 21.10 +15 46 35.7   699 – Lowell Observatory-LONEOS MPS 12613
2000 03 26.29899 11 52 19.81 +15 46 40.2   699 – Lowell Observatory-LONEOS MPS 12613
2000 03 26.32044 11 52 18.34 +15 46 43.5   699 – Lowell Observatory-LONEOS MPS 12613
2000 03 28.19961 11 50 23.73 +15 51 42.1 19.2   704 – Lincoln Laboratory ETS, New Mexico MPS 12613
2000 03 28.21499 11 50 22.75 +15 51 44.9 19.2   704 – Lincoln Laboratory ETS, New Mexico MPS 12613
2000 03 28.25571 11 50 20.19 +15 51 50.7 19.0   704 – Lincoln Laboratory ETS, New Mexico MPS 12614
2000 04 04.27238 11 43 37.94 +16 03 17.3 17.3   704 – Lincoln Laboratory ETS, New Mexico MPS 12614
2000 04 04.28736 11 43 37.16 +16 03 18.1 17.7   704 – Lincoln Laboratory ETS, New Mexico MPS 12614
2000 04 04.30218 11 43 36.29 +16 03 18.2 17.6   704 – Lincoln Laboratory ETS, New Mexico MPS 12614
2000 04 04.31707 11 43 35.47 +16 03 18.6 17.4   704 – Lincoln Laboratory ETS, New Mexico MPS 12614
2000 04 04.33344 11 43 34.60 +16 03 19.9 17.6   704 – Lincoln Laboratory ETS, New Mexico MPS 12614
2000 04 08.13114 11 40 20.02 +16 04 38.5 17.8   704 – Lincoln Laboratory ETS, New Mexico MPS 12614
2000 04 08.14492 11 40 19.35 +16 04 38.2 18.3   704 – Lincoln Laboratory ETS, New Mexico MPS 12614
2000 04 08.15889 11 40 18.61 +16 04 37.9 18.3   704 – Lincoln Laboratory ETS, New Mexico MPS 12614
2000 04 08.17291 11 40 17.89 +16 04 38.8 18.1   704 – Lincoln Laboratory ETS, New Mexico MPS 12614
2000 04 08.18673 11 40 17.21 +16 04 38.4 18.3   704 – Lincoln Laboratory ETS, New Mexico MPS 12614
2000 04 28.15084 11 29 06.42 +15 19 35.3 18.5 R 699 – Lowell Observatory-LONEOS MPS 14226
2000 04 28.16983 11 29 06.05 +15 19 30.1   699 – Lowell Observatory-LONEOS MPS 14226
2000 04 28.18889 11 29 05.70 +15 19 25.4   699 – Lowell Observatory-LONEOS MPS 14226
2000 04 28.20789 11 29 05.31 +15 19 21.2   699 – Lowell Observatory-LONEOS MPS 14226
2000 05 03.21010 11 27 59.20 +14 56 14.5 18.4   704 – Lincoln Laboratory ETS, New Mexico MPS 14226
2000 05 03.22298 11 27 59.03 +14 56 10.9 19.1   704 – Lincoln Laboratory ETS, New Mexico MPS 14226
2000 05 03.23599 11 27 58.95 +14 56 06.4 19.1   704 – Lincoln Laboratory ETS, New Mexico MPS 14226
2000 05 03.26156 11 27 58.64 +14 55 57.4 19.5   704 – Lincoln Laboratory ETS, New Mexico MPS 14226
2002 11 12.41957 09 10 16.66 +24 45 24.0 18.5   704 – Lincoln Laboratory ETS, New Mexico MPS 65626
2002 11 12.43702 09 10 17.86 +24 45 24.9 18.5   704 – Lincoln Laboratory ETS, New Mexico MPS 65626
2002 11 12.45428 09 10 19.07 +24 45 28.1 18.9   704 – Lincoln Laboratory ETS, New Mexico MPS 65626
2002 11 12.47161 09 10 20.27 +24 45 28.3 18.9   704 – Lincoln Laboratory ETS, New Mexico MPS 65626
2002 11 12.48883 09 10 21.49 +24 45 29.5 18.8   704 – Lincoln Laboratory ETS, New Mexico MPS 65626
2002 11 14.41907 09 12 37.28 +24 48 21.9 18.4   704 – Lincoln Laboratory ETS, New Mexico MPS 65626
2002 11 14.43630 09 12 38.48 +24 48 24.3 18.7   704 – Lincoln Laboratory ETS, New Mexico MPS 65626
2002 11 14.45330 09 12 39.61 +24 48 25.7 18.6   704 – Lincoln Laboratory ETS, New Mexico MPS 65626
2002 11 14.47030 09 12 40.76 +24 48 27.5 18.7   704 – Lincoln Laboratory ETS, New Mexico MPS 65626
2002 11 14.48738 09 12 41.88 +24 48 29.7 18.6   704 – Lincoln Laboratory ETS, New Mexico MPS 65626
2002 11 21.51518 09 20 07.37 +25 03 29.1 17.7   644 – Palomar Mountain/NEAT MPS 67662
2002 11 21.52559 09 20 07.95 +25 03 30.9 17.8   644 – Palomar Mountain/NEAT MPS 67662
